BEIDOU-3 M15 (C34) (43648 NORAD) Tracking and Keplerian Element Data

This shows tracking and keplerian element data for the satellite.

Feedback or suggestion? Click here.




ElementValue
Catalog43648
NameBEIDOU-3 M15 (C34)
Epoch Orbit4288
Epoch Day34.3238832
Epoch Year2025
RAAN317.4177
Inclination54.5273
Eccentricity0.0004845
Argument of Perigee18.9853
Mean Anonmoly341.0659
Mean Motion1.86231947
Decay Rate-7.3E-07
L11 43648U 18078B 25034.32388320 -.00000073 00000+0 00000+0 0 9991
L22 43648 54.5273 317.4177 0004845 18.9853 341.0659 1.86231947 42889



Live tracking and technical data element details for BEIDOU-3 M15 (C34) (NORAD 43648). BEIDOU-3 M15 (C34) can be tracked NOW for your location showing map with azimuth and elevation plus other details from your city location.







IsCatalogInMostPopularTable: catalog: 43648, numindb: 398
Update: records affected: 1



GetName: 43648 BEIDOU-3 M15 (C34)

Hit Count: updated at: Thu, 15 May 2025 19:31:37 GMT